WICK current weather conditions

sailwx.info

Wind from 270 at 8 knots

Air temperature 2.0° C
Visibility: greater than 5.4 NM
Dewpoint -0.0° C

Last reported at 2015-Mar-01 19:20 UTC.
Time now 2015-Mar-01 20:58 UTC

Location: N 58°27' W 003°05'.
View on Google Maps.

See reports from other nearby stations

  
Tides and Currents Weather Stations Pressure Air Temp Water Temp Dewpoint Dewpoint Depression Visibility Wind Speed Wind Dir Waves Ship Positions
date/time (UTC)wind fromknots sea level pressurealtimeterstation pressurevisibilityair tempwater tempwave heightnotes
2015-Mar-01 19:20 270 8 5.4 2.0
2015-Mar-01 18:50 270 12 5.4 3.0
2015-Mar-01 18:20 260 13 5.4 3.0
2015-Mar-01 17:50 260 10 5.4 3.0
2015-Mar-01 17:20 260 9 5.4 3.0
2015-Mar-01 16:50 260 12 5.4 3.0 Showers in the vicinity.
2015-Mar-01 16:20 280 19 gusting 30 5.4 4.0 Light rain showers.
2015-Mar-01 15:50 290 15 5.4 3.0 Showers in the vicinity.
2015-Mar-01 15:20 250 19 gusting 29 5.4 5.0 Showers in the vicinity.
2015-Mar-01 14:50 250 20 gusting 31 5.4 6.0 Light rain showers.
2015-Mar-01 14:20 260 20 gusting 31 5.4 6.0 Showers in the vicinity.
2015-Mar-01 13:50 250 22 5.4 7.0
2015-Mar-01 13:20 250 17 5.4 7.0
2015-Mar-01 12:50 260 22 5.4 6.0
2015-Mar-01 12:20 260 15 5.4 7.0
2015-Mar-01 11:50 250 13 5.4 5.0
2015-Mar-01 11:20 260 17 5.4 5.0
2015-Mar-01 10:50 270 19 5.4 6.0
2015-Mar-01 10:20 270 17 5.4 6.0
2015-Mar-01 09:50 270 17 5.4 5.0
2015-Mar-01 09:20 260 12 5.4 5.0
2015-Mar-01 08:50 280 11 5.4 4.0
2015-Mar-01 08:20 280 15 5.4 4.0
2015-Mar-01 07:50 280 20 5.4 4.0
2015-Mar-01 07:20 280 15 5.4 4.0
2015-Mar-01 06:50 290 25 gusting 35 5.4 4.0
2015-Mar-01 06:20 310 27 4.9 3.0
2015-Mar-01 05:50 300 24 5.4 4.0
2015-Mar-01 05:20 310 30 4.9 4.0 Light drizzle.
2015-Mar-01 04:50 310 29 gusting 39 3.8 4.0 Light rain.
2015-Mar-01 04:20 300 20 gusting 32 5.4 4.0 Light rain.
2015-Mar-01 03:50 310 24 5.4 4.0
2015-Mar-01 03:20 310 20 5.4 3.0 Rain.
2015-Mar-01 02:50 300 20 5.4 2.0
2015-Mar-01 02:20 310 22 1.6 3.0
2015-Mar-01 01:50 290 9 5.4 5.0
2015-Mar-01 01:20 5.4 5.0
2015-Mar-01 00:50 190 7 5.4 5.0
2015-Mar-01 00:20 170 9 5.4 5.0
2015-Feb-28 23:50 160 13 5.4 5.0
2015-Feb-28 23:20 160 13 5.4 5.0
2015-Feb-28 22:50 150 15 4.3 5.0 Light rain.
2015-Feb-28 22:20 160 17 3.2 5.0 Light rain.
2015-Feb-28 21:50 170 18 2.7 4.0 Light rain.
2015-Feb-28 21:20 170 18 5.4 5.0 Light rain.
2015-Feb-28 20:50 160 20 5.4 5.0
2015-Feb-28 20:20 170 19 5.4 5.0
2015-Feb-28 19:50 170 18 5.4 5.0
2015-Feb-28 19:20 180 15 5.4 5.0
2015-Feb-28 18:50 180 15 gusting 25 5.4 5.0
2015-Feb-28 18:20 180 15 5.4 6.0
2015-Feb-28 17:50 190 14 5.4 6.0
2015-Feb-28 17:20 180 13 5.4 6.0 Light drizzle.
2015-Feb-28 16:50 180 16 5.4 6.0 Light rain showers.
2015-Feb-28 16:20 180 11 5.4 6.0
2015-Feb-28 15:50 190 12 5.4 6.0 Light rain showers.
2015-Feb-28 15:20 190 12 5.4 6.0 Light rain showers.
2015-Feb-28 14:50 200 12 5.4 6.0 Light rain showers.
2015-Feb-28 14:20 190 14 5.4 6.0 Light rain showers.
2015-Feb-28 13:50 190 13 5.4 6.0
2015-Feb-28 13:20 210 13 5.4 6.0
2015-Feb-28 12:50 210 13 5.4 6.0
2015-Feb-28 12:20 210 12 5.4 6.0
2015-Feb-28 11:50 210 13 5.4 7.0
2015-Feb-28 11:20 210 14 5.4 6.0
2015-Feb-28 10:50 220 13 5.4 6.0
2015-Feb-28 10:20 220 12 5.4 6.0
2015-Feb-28 09:50 210 13 5.4 5.0
2015-Feb-28 09:20 220 12 5.4 5.0
2015-Feb-28 08:50 210 13 5.4 5.0
2015-Feb-28 08:20 210 11 5.4 5.0
2015-Feb-28 07:50 210 12 5.4 5.0
2015-Feb-28 07:20 190 11 5.4 5.0
2015-Feb-28 06:50 210 10 5.4 5.0
2015-Feb-28 06:20 210 10 gusting 22 5.4 5.0
2015-Feb-28 05:50 210 7 5.4 5.0
2015-Feb-28 05:20 220 8 5.4 5.0
2015-Feb-28 04:50 240 7 5.4 5.0
2015-Feb-28 04:20 240 9 5.4 5.0
2015-Feb-28 03:50 220 7 5.4 5.0
2015-Feb-28 03:20 230 8 5.4 5.0
2015-Feb-28 02:50 220 11 5.4 5.0
2015-Feb-28 02:20 230 11 5.4 5.0
2015-Feb-28 01:50 220 12 5.4 5.0
2015-Feb-28 01:20 220 15 4.3 5.0 Light rain.
2015-Feb-28 00:50 210 17 gusting 29 5.4 5.0
2015-Feb-28 00:20 210 17 5.4 6.0
2015-Feb-27 23:50 200 18 5.4 6.0
2015-Feb-27 23:20 200 19 gusting 32 5.4 6.0
2015-Feb-27 22:50 200 20 gusting 30 5.4 5.0
2015-Feb-27 22:20 190 17 5.4 5.0
2015-Feb-27 21:50 200 20 5.4 5.0
2015-Feb-27 21:20 200 18 gusting 27 5.4 5.0
2015-Feb-27 20:50 190 20 5.4 5.0
2015-Feb-27 20:20 200 18 gusting 27 5.4 5.0